| time (UTC) | temp F | wind direction | speed MPH | gust MPH | rain 1hr in | rain 24hr in | rain mn in | humidity % | barometer mb |
| 20260831125801 | 63 | 22 | 0.0 | 0.0 | 0.00 | 0.51 | 0.02 | 80 | 1002.4 |
| 20260831115802 | 69 | 225 | 0.0 | 0.0 | 0.00 | 0.51 | 0.02 | 68 | 1002.1 |
| 20260831105802 | 67 | 247 | 0.0 | 0.0 | 0.00 | 0.51 | 0.02 | 72 | 1001.9 |
| 20260831095801 | 66 | 180 | 0.0 | 0.0 | 0.00 | 0.51 | 0.02 | 76 | 1002.6 |
| 20260831085802 | 65 | 247 | 0.0 | 0.0 | 0.00 | 0.51 | 0.02 | 81 | 1002.0 |
| 20260831075802 | 64 | 225 | 0.0 | 0.0 | 0.00 | 0.51 | 0.02 | 86 | 1002.0 |
| 20260831065801 | 61 | 180 | 0.0 | 0.0 | 0.00 | 0.51 | 0.02 | 89 | 1002.4 |
| 20260831055801 | 60 | 247 | 0.0 | 0.0 | 0.00 | 0.51 | 0.02 | 91 | 1002.5 |
| 20260831045801 | 60 | 180 | 0.0 | 0.0 | 0.01 | 0.51 | 0.02 | 91 | 1002.3 |
| 20260831035801 | 60 | 270 | 0.0 | 0.0 | 0.00 | 0.50 | 0.01 | 93 | 1002.4 |
| 20260831025802 | 61 | 337 | 0.0 | 0.0 | 0.01 | 0.50 | 0.01 | 93 | 1002.8 |
| 20260831015801 | 61 | 135 | 0.0 | 0.0 | 0.00 | 0.49 | 0.00 | 94 | 1003.1 |
| 20260831005801 | 61 | 0 | 0.0 | 0.0 | 0.00 | 0.49 | 0.00 | 93 | 1004.3 |
| 20260830235801 | 61 | 157 | 0.0 | 0.0 | 0.00 | 0.49 | 0.37 | 93 | 1004.7 |
| 20260830225802 | 62 | 202 | 0.0 | 0.0 | 0.00 | 0.49 | 0.37 | 92 | 1005.4 |
| 20260830215801 | 62 | 202 | 0.0 | 0.0 | 0.00 | 0.49 | 0.37 | 91 | 1005.7 |
| 20260830205801 | 63 | 247 | 0.0 | 0.0 | 0.00 | 0.49 | 0.37 | 90 | 1005.6 |
| 20260830195801 | 64 | 225 | 0.0 | 0.0 | 0.00 | 0.49 | 0.37 | 87 | 1006.0 |
| 20260830185801 | 65 | 247 | 0.0 | 0.0 | 0.00 | 0.49 | 0.37 | 85 | 1005.9 |
| 20260830175801 | 66 | 292 | 0.0 | 0.0 | 0.00 | 0.49 | 0.37 | 79 | 1005.6 |
| 20260830165801 | 67 | 292 | 0.0 | 0.0 | 0.00 | 0.49 | 0.37 | 80 | 1005.3 |
| 20260830155801 | 67 | 292 | 0.0 | 0.0 | 0.00 | 0.49 | 0.37 | 76 | 1005.2 |
| 20260830145801 | 67 | 270 | 0.0 | 0.0 | 0.00 | 0.49 | 0.37 | 79 | 1005.0 |
| 20260830135801 | 68 | 292 | 0.0 | 0.0 | 0.00 | 0.49 | 0.37 | 80 | 1004.6 |